Location: San Antonio
(29.4240°N, 98.4930°W)
Time: 07:53:41
(UTC-05:00)

A-11 Canister half - All Passes

Search period start: 19 July 2024 00:00
Search period end: 29 July 2024 00:00
Orbit: 1515 x 1684 km, 47.2° (Epoch: 18 July)

Date Brightness Start Highest point End Pass type
(mag) Time Alt. Az. Time Alt. Az. Time Alt. Az.
19 Jul - 09:32:14 10° SSW 09:41:07 42° SE 09:50:15 10° ENE daylight
19 Jul - 11:36:10 10° WSW 11:45:51 62° NW 11:55:53 10° NE daylight
19 Jul - 13:44:16 10° WNW 13:52:47 30° NNW 14:01:25 10° NE daylight
19 Jul - 15:52:05 10° NW 16:00:51 32° NNE 16:09:36 10° ENE daylight
19 Jul - 17:57:24 10° NW 18:07:35 69° NE 18:17:32 10° ESE daylight
19 Jul - 20:03:15 10° WNW 20:12:11 37° SW 20:20:55 10° S daylight
20 Jul - 09:09:30 10° SSW 09:18:10 39° SE 09:27:06 10° ENE daylight
20 Jul - 11:13:05 10° WSW 11:22:48 65° NW 11:32:51 10° NE daylight
20 Jul - 13:21:03 10° WNW 13:29:36 31° NNW 13:38:18 10° NE daylight
20 Jul - 15:28:59 10° NW 15:37:41 31° NNE 15:46:22 10° ENE daylight
20 Jul - 17:34:23 10° NW 17:44:32 65° NE 17:54:28 10° ESE daylight
20 Jul - 19:40:06 10° WNW 19:49:14 40° SW 19:58:10 10° SSE daylight
21 Jul - 08:46:47 10° S 08:55:14 36° SE 09:03:55 10° ENE daylight
21 Jul - 10:50:03 10° WSW 10:59:44 69° NW 11:09:49 10° NE daylight
21 Jul - 12:57:50 10° WNW 13:06:26 32° NNW 13:15:11 10° NE daylight
21 Jul - 15:05:54 10° NW 15:14:30 30° NNE 15:23:08 10° ENE daylight
21 Jul - 17:11:23 10° NW 17:21:28 62° NE 17:31:22 10° ESE daylight
21 Jul - 19:16:57 10° WNW 19:26:16 43° SW 19:35:25 10° SSE daylight
22 Jul - 08:24:06 10° S 08:32:18 33° SE 08:40:43 10° ENE daylight
22 Jul - 10:27:00 10° WSW 10:36:42 73° NW 10:46:47 10° NE daylight
22 Jul - 12:34:37 10° WNW 12:43:16 32° NNW 12:52:05 10° NE daylight
22 Jul - 14:42:47 10° NW 14:51:19 30° N 14:59:53 10° ENE daylight
22 Jul - 16:48:21 10° NW 16:58:23 59° NNE 17:08:16 10° ESE daylight
22 Jul - 18:53:48 10° WNW 19:03:19 47° SW 19:12:38 10° SSE daylight
23 Jul - 08:01:27 10° S 08:09:23 30° SE 08:17:31 10° ENE daylight
23 Jul - 10:03:59 10° SW 10:13:40 77° NW 10:23:45 10° NE daylight
23 Jul - 12:11:24 10° W 12:20:06 33° NNW 12:29:00 10° NE daylight
23 Jul - 14:19:41 10° NW 14:28:08 29° N 14:36:38 10° ENE daylight
23 Jul - 16:25:20 10° NW 16:35:18 56° NNE 16:45:09 10° ESE daylight
23 Jul - 18:30:42 10° WNW 18:40:20 50° SW 18:49:49 10° SSE daylight
24 Jul - 07:38:50 10° S 07:46:27 28° SE 07:54:15 10° ENE daylight
24 Jul - 09:40:59 10° SW 09:50:39 81° NW 10:00:43 10° NE daylight
24 Jul - 11:48:13 10° W 11:56:56 34° NNW 12:05:55 10° NE daylight
24 Jul - 13:56:33 10° NW 14:04:57 29° N 14:13:24 10° ENE daylight
24 Jul - 16:02:19 10° NW 16:12:13 53° NNE 16:22:01 10° ESE daylight
24 Jul - 18:07:35 10° WNW 18:17:22 54° SW 18:26:58 10° SSE daylight
25 Jul - 07:16:15 10° S 07:23:32 25° SE 07:30:59 10° ENE daylight
25 Jul - 09:18:00 10° SW 09:27:38 86° NW 09:37:41 10° NE daylight
25 Jul - 11:25:01 10° W 11:33:48 35° NNW 11:42:50 10° NE daylight
25 Jul - 13:33:26 10° NW 13:41:45 28° N 13:50:09 10° ENE daylight
25 Jul - 15:39:18 10° NW 15:49:07 50° NNE 15:58:52 10° ESE daylight
25 Jul - 17:44:30 10° WNW 17:54:23 58° SW 18:04:07 10° SSE daylight
25 Jul - 19:55:56 10° WSW 19:58:03 11° WSW 20:00:11 10° SW daylight
26 Jul - 06:53:44 10° S 07:00:37 23° SE 07:07:39 10° ENE daylight
26 Jul - 08:55:02 10° SW 09:04:38 90° ESE 09:14:39 10° NE daylight
26 Jul - 11:01:50 10° W 11:10:40 37° NNW 11:19:46 10° NE daylight
26 Jul - 13:10:18 10° NW 13:18:33 28° N 13:26:56 10° ENE daylight
26 Jul - 15:16:18 10° NW 15:26:01 48° NNE 15:35:42 10° ESE daylight
26 Jul - 17:21:26 10° NW 17:31:24 62° SW 17:41:14 10° SSE daylight
26 Jul - 19:31:27 10° W 19:35:08 12° WSW 19:38:48 10° SW daylight
27 Jul - 06:31:15 10° SSE 06:37:42 21° SE 06:44:17 10° E daylight
27 Jul - 08:32:04 10° SW 08:41:38 85° SE 08:51:36 10° NE daylight
27 Jul - 10:38:39 10° W 10:47:32 38° NNW 10:56:43 10° NE daylight
27 Jul - 12:47:10 10° NW 12:55:22 28° N 13:03:42 10° ENE daylight
27 Jul - 14:53:16 10° NW 15:02:54 46° NNE 15:12:32 10° E daylight
27 Jul - 16:58:21 10° NW 17:08:24 67° SW 17:18:20 10° SE daylight
27 Jul - 19:07:31 10° W 19:12:13 14° WSW 19:16:53 10° SSW daylight
28 Jul - 06:08:51 10° SSE 06:14:48 19° ESE 06:20:51 10° E visible
28 Jul - 08:09:08 10° SW 08:18:39 80° SE 08:28:33 10° NE daylight
28 Jul - 10:15:29 10° W 10:24:24 39° NNW 10:33:39 10° NE daylight
28 Jul - 12:24:01 10° NW 12:32:11 27° N 12:40:28 10° ENE daylight
28 Jul - 14:30:15 10° NW 14:39:48 44° NNE 14:49:21 10° E daylight
28 Jul - 16:35:18 10° NW 16:45:24 71° SW 16:55:25 10° SE daylight
28 Jul - 18:43:49 10° W 18:49:17 16° WSW 18:54:44 10° SSW daylight
